Regional Weather Roundup
Issued by NWS Cleveland, OH

Home | Current Version | Previous Version | Text Only | Print | Product List | Glossary On
Versions: 1 2 3 4 5 6 7 8 9 10 11 12 13 14 15 16 17 18 19 20 21 22 23 24 25 26 27 28 29 30 31 32 33 34 35 36 37 38 39 40 41 42 43 44 45 46 47 48 49 50
000
ASUS41 KCLE 290510
RWRCLE
OHIO REGIONAL WEATHER ROUNDUP
NATIONAL WEATHER SERVICE WILMINGTON, OH
100 AM EDT FRI MAY 29 2015

NOTE: "FAIR" INDICATES FEW OR NO CLOUDS BELOW 12,000 FEET WITH NO
SIGNIFICANT WEATHER AND/OR OBSTRUCTIONS TO VISIBILITY.

OHZ001>008-015>018-024>027-034-035-043-044-290600-
   NORTHWEST OHIO

CITY           SKY/WX    TMP DP  RH WIND       PRES   REMARKS
DEFIANCE       CLEAR     66  57  72 E8        30.16F
FINDLAY        PTCLDY    68  58  70 E8        30.16F
TOLEDO EXPRESS MOCLDY    64  53  67 E6        30.16F
TOLEDO EXEC    CLEAR     63  53  70 E8        30.18F
LIMA           PTCLDY    71  61  70 SE9       30.16F
$$

OHZ009>014-019>023-028>033-038-089-290600-
   NORTHEAST OHIO

CITY           SKY/WX    TMP DP  RH WIND       PRES   REMARKS
CLE-HOPKINS    CLEAR     65  55  70 SE5       30.23F
CLE-LAKEFRONT  CLEAR     69  54  58 E5        30.20F
CUY CO. ARPT   NOT AVBL
LORAIN-ELYRIA  CLEAR     60  55  83 SE6       30.21F
ASHTABULA      CLEAR     58  55  90 CALM      30.25F
AKRON-CANTON   CLEAR     68  54  60 SE7       30.23F
WOOSTER        CLEAR     64  57  78 CALM      30.23F
MANSFIELD      CLEAR     66  58  75 E8        30.21F
YOUNGSTOWN     CLEAR     57  56  96 E6        30.24F
$$

OHZ042-051>053-060>062-070>072-077>081-290600-
  SOUTHWEST OHIO

CITY           SKY/WX    TMP DP  RH WIND       PRES   REMARKS
CINC-COVINGTON MOCLDY    69  65  86 S5        30.16F
CINC-LUNKEN    PTCLDY    68  66  93 CALM      30.16F
HAMILTON       PTCLDY    67  63  87 E3        30.16F
DAYTON         PTCLDY    70  63  78 SE7       30.17S
WRIGHT-PAT AFB CLEAR     70  63  78 SE3       30.16F
DAYTON GENERAL CLEAR     70  63  78 CALM      30.16F
WILMINGTON     MOCLDY    69  63  81 SE3       30.17F
$$

OHZ036-037-039>041-045>050-054>059-063>069-073>076-082>088-290600-
  CENTRAL AND SOUTHEAST OHIO

CITY           SKY/WX    TMP DP  RH WIND       PRES   REMARKS
COLUMBUS       MOCLDY    71  62  73 SE5       30.18F
OSU AIRPORT    CLEAR     70  61  73 SE6       30.18F
BOLTON FIELD   NOT AVBL
RICKENBACK AFB CLEAR     69  63  80 SE6       30.17F
NEWARK         CLEAR     62  60  93 CALM      30.19F
MARION         CLEAR     67  59  75 SE7       30.19F
LANCASTER      CLEAR     67  63  87 S3        30.19F
ZANESVILLE     CLEAR     67  59  75 CALM      30.20F
NEW PHILLY     CLEAR     64  60  87 CALM      30.22F
$$


USA.gov is the U.S. government's official web portal to all federal, state and local government web resources and services.